NOAA 16 DEB

Satellite information

Favourite Embed

Satellite Type and Status

DEBRISIN ORBIT

Key statistics

Satellite NOAA 16 DEB at a glance.

Uptime

9055

Days in orbit

Revolutions

≈ 14.6

Per day

Orbit

SSO

Sun Synchronous Orbit

Inclination

99.0

Latest

Satellite identification and parameters

Extended collection of information and parameters for NOAA 16 DEB.

Object identification

Identified? True

Debris? True

Object name: NOAA 16 DEB

International designator: 2000-055DJ

Object number (NORAD): 41205

Object ID (CCSDS): 41205

Country: UNITED STATES OF AMERICA (US)

Current information (Y/N): Y

RCS size: SMALL

Orbital parameters

Period: 98.553 minutes

Inclination: 98.9586 deg

SMA: 7067.633 km

Apoapsis: 700.803 km

Periapsis: 678.192 km

RAAN: 355.9726 deg

Eccentricy: 0.0015996

Argument of periapsis: 62.014 deg

Mean anomaly: 298.2675 deg

Mean motion: 14.61139924 rev/day

Mean motion (dot): 0.00013884 rev/day2

B* drag term: 0.0028226 1/REarth

Two-line elements (TLE)

Creation date: July 4, 2025, 3:20 a.m.

Reference frame: TEME

Reference center: EARTH

Epoch: July 3, 2025, 5:27 p.m. UTC

TLE line 0: 0 NOAA 16 DEB

TLE line 1: 1 41205U 00055DJ 25184.72721255 .00013884 00000-0 28226-2 0 9999

TLE line 2: 2 41205 98.9586 355.9726 0015996 62.0140 298.2675 14.61139924495826

Live tracking on map

Real-time ground track for satellite NOAA 16 DEB.

In-orbit conjunctions

A list of the most updated potential collisions computed for object NOAA 16 DEB.

Target Orbit TCA Probability of collision Miss distance Type
FENGYUN 1C DEB SSO 2024-08-24 22:57:44 0.0006445874 70.0 (m) DEBRIS
FENGYUN 1C DEB SSO 2024-06-09 03:34:08 0.000164744 108.0 (m) DEBRIS

Associated space launch

The NOAA K, L and M POES satellites begin the fifth generation of improved environmental monitoring in support of NOAA missions. The instrument payload has significant improvements and additions/deletions. The instrument changes have effected the spacecraft subsystems and data formats.

NOAA 16 DEB was lifted into orbit during the mission ‘Titan II SLV | NOAA 16’, on board a Titan II SLV space rocket.

The launch took place on Sept. 21, 2000, 10:22 a.m. from Space Launch Complex 4W.

For more information about the launch, click the button.

Launch to space Titan II SLV | NOAA 16
Titan II SLV | NOAA 16

Agency: N/A

Status: Launch Successful

Launch date: Sept. 21, 2000, 10:22 a.m. UTC

Rocket: Titan II SLV

Launch pad: Space Launch Complex 4W

Location: Vandenberg SFB, CA, USA

...

Latest news about this satellite

There are no fresh news available about this satellite. Check back as we update our databases every day.


Newsletter sign-up

Weekly statistics, charts and insights to help you stay on top of the space industry.